Printer-friendly version
Follow the MPC on Twitter Follow the MPC on Facebook The MPC blog
Minor Planet Center

MPEC 2009-K76 : 2009 KL2

The following Minor Planet Electronic Circular may be linked-to from your own Web pages, but must not otherwise be redistributed electronically.

A form allowing access to any MPEC is at the bottom of this page.


Read MPEC 2009-K75 Read MPEC 2009-K77


M.P.E.C. 2009-K76                                Issued 2009 May 30, 23:51 UT

     The Minor Planet Electronic Circulars contain information on unusual
         minor planets and routine data on comets.  They are published
   on behalf of Commission 20 of the International Astronomical Union by the
          Minor Planet Center, Smithsonian Astrophysical Observatory,
                          Cambridge, MA 02138, U.S.A.

             Prepared using the Tamkin Foundation Computer Network

                              MPC@CFA.HARVARD.EDU
          URL http://www.cfa.harvard.edu/iau/mpc.html  ISSN 1523-6714

                                   2009 KL2

Additional Observations:
     K09K02L  C2009 05 30.04950 17 22 40.66 -00 18 38.5                 EK076J95
     K09K02L  C2009 05 30.05253 17 22 40.54 -00 18 36.1                 EK076J95
     K09K02L  C2009 05 30.05554 17 22 40.37 -00 18 33.3                 EK076J95
     K09K02L  C2009 05 30.05865 17 22 40.23 -00 18 30.6          18.9 R EK076J95
     K09K02L  C2009 05 30.33047 17 22 27.96 -00 14 48.9          18.6 R EK076926
     K09K02L  C2009 05 30.33734 17 22 27.61 -00 14 43.4          18.6 R EK076926
     K09K02L  C2009 05 30.34426 17 22 27.26 -00 14 37.9          18.7 R EK076926
     K09K02L  C2009 05 30.35138 17 22 26.90 -00 14 32.2          18.3 R EK076926
     K09K02L  C2009 05 30.35832 17 22 26.56 -00 14 26.6          18.5 R EK076926
     K09K02L  C2009 05 30.36225 17 22 26.21 -00 14 25.3          18.2 R EK076H36
     K09K02L  C2009 05 30.36538 17 22 26.20 -00 14 21.2          18.8 R EK076926
     K09K02L  C2009 05 30.36961 17 22 25.81 -00 14 18.8          18.0 R EK076H36
     K09K02L  C2009 05 30.37696 17 22 25.45 -00 14 13.7          18.5 R EK076H36

Observer details:
926 Tenagra II Observatory.  Observer M. Ory.  0.81-m f/7 Ritchey-Chretien
    + CCD.
H36 Sandlot Observatory, Scranton.  Observer G. Hug.  0.56-m reflector + CCD.
J95 Great Shefford.  Observer P. Birtwhistle.  0.40-m f/6.0 Schmidt-Cassegrain
    + CCD.

Orbital elements:
2009 KL2                                                 Earth MOID = 0.1595 AU
Epoch 2009 June 18.0 TT = JDT 2455000.5                 MPC
M 330.05133              (2000.0)            P               Q
n   0.30037546     Peri.  166.07247     +0.93828455     +0.34538572
a   2.2081391      Node   173.63317     -0.33095339     +0.91186514
e   0.4727351      Incl.    9.43981     -0.10045870     +0.22183479
P   3.28           H   17.6           G   0.15           U   7
Residuals in seconds of arc
090520 185  0.7+  0.7-    090521 G68  0.5+  0.1+    090530 926  0.0   0.1+
090520 185  0.3+  0.1+    090530 J95  0.2-  0.2-    090530 926  0.1-  0.1+
090520 185  0.7-  0.8+    090530 J95  0.2+  0.2-    090530 926  0.1+  0.2+
090520 185  0.1+  0.3-    090530 J95  0.1-  0.1+    090530 H36  0.2+  0.4-
090520 185  0.5-  0.3+    090530 J95  0.1+  0.3+    090530 926  0.0   0.1-
090520 185  0.5-  0.0     090530 926  0.0   0.2+    090530 H36  0.3-  0.2+
090521 G68  0.1+  0.3-    090530 926  0.0   0.2+    090530 H36  0.2-  0.6-

Ephemeris:
2009 KL2                 a,e,i = 2.21, 0.47, 9                   q = 1.1643
Date    TT    R. A. (2000) Decl.     Delta      r     Elong.  Phase     V
2009 05 29    17 23.45   -00 32.6    0.702    1.674   154.4    15.2    18.8
2009 06 08    17 14.75   +01 35.2    0.633    1.612   155.5    15.2    18.5
2009 06 18    17 03.85   +03 17.2    0.581    1.551   151.4    18.3    18.3
2009 06 28    16 52.55   +04 17.0    0.544    1.491   144.0    23.6    18.3
2009 07 08    16 43.13   +04 24.2    0.519    1.434   135.4    29.9    18.3
2009 07 18    16 37.50   +03 36.9    0.503    1.379   126.9    36.1    18.3
2009 07 28    16 37.09   +01 59.0    0.492    1.328   119.3    41.8    18.3
2009 08 07    16 42.70   -00 21.4    0.483    1.281   112.8    46.9    18.3
2009 08 17    16 54.60   -03 16.2    0.475    1.241   107.5    51.1    18.3
2009 08 27    17 13.05   -06 37.4    0.467    1.208   103.5    54.4    18.3
2009 09 06    17 38.25   -10 14.7    0.460    1.184   100.8    56.7    18.3
2009 09 16    18 10.31   -13 54.6    0.456    1.169    99.3    58.1    18.3
2009 09 26    18 49.18   -17 17.2    0.458    1.164    98.8    58.3    18.3
2009 10 06    19 33.95   -19 57.4    0.467    1.170    99.3    57.5    18.4
2009 10 16    20 22.54   -21 31.4    0.488    1.185   100.2    55.9    18.4
2009 10 26    21 12.06   -21 45.7    0.522    1.210   101.3    53.7    18.6
2009 11 05    21 59.52   -20 44.2    0.571    1.243   102.1    51.2    18.8
2009 11 15    22 42.94   -18 43.7    0.634    1.284   102.3    48.8    19.0
2009 11 25    23 21.76   -16 04.7    0.711    1.330   101.9    46.5    19.2
2009 12 05    23 56.25   -13 05.4    0.802    1.382   100.8    44.5    19.5
2009 12 15    00 27.08   -09 58.9    0.904    1.437    99.0    42.6    19.8
2009 12 25    00 55.08   -06 53.5    1.018    1.495    96.6    40.8    20.1
2010 01 04    01 20.93   -03 54.7    1.142    1.555    93.7    39.1    20.4
2010 01 14    01 45.18   -01 05.2    1.275    1.616    90.4    37.5    20.7
2010 01 24    02 08.28   +01 33.1    1.416    1.678    86.8    35.9    20.9
2010 02 03    02 30.54   +03 59.1    1.562    1.740    82.8    34.2    21.2
2010 02 13    02 52.18   +06 12.5    1.714    1.802    78.6    32.5    21.4
2010 02 23    03 13.39   +08 13.0    1.869    1.863    74.3    30.7    21.6
2010 03 05    03 34.26   +10 00.4    2.027    1.924    69.8    28.9    21.8
2010 03 15    03 54.86   +11 34.9    2.184    1.984    65.2    27.1    22.0

Timothy B. Spahr             (C) Copyright 2009 MPC           M.P.E.C. 2009-K76

Read MPEC 2009-K75 Read MPEC 2009-K77


MPEC number:

Enter an MPEC number in one of the following forms:

  • 1997-B01 (the full form)
  • J97B01 (the packed version of the full form)
  • B01 (the abbreviated form)

Valid HTML 4.01!